[Date Prev][Date Next][Thread Prev][Thread Next] - [Date Index][Thread Index][Author Index]

2 Line ISS Keps 12-2



ISS
1 25544U 98067A   02336.18166133  .00140171  00000-0  19004-2 0  4314
2 25544  51.6360 289.4670 0003111 225.9823 275.3484 15.56678595230179


----
Via the sarex mailing list at AMSAT.ORG courtesy of AMSAT-NA.
To unsubscribe, send "unsubscribe sarex" to Majordomo@amsat.org



AMSAT Top AMSAT Home